Theta_e
344 343 343 345 347 348 348 345 345 346 345 346 345 342 343 345 346 348 349 350 350 343 337 342 345 342 341 344 348 350 348 342 340 341 342 344 342 343 348 349 343 340 338 336 342 347 345 341 342 343 345 346 347 351 355 356 356 353 352 352 350 349 346 340 337 336 335 336 337 337 339 341 340 338 337 335 333 334 335 334 334 334 335 333 332
346 343 343 344 346 346 346 347 345 345 348 348 346 345 343 343 345 348 349 348 349 347 340 337 341 342 343 348 350 352 352 345 342 343 341 342 343 341 344 345 341 340 340 336 336 342 344 342 341 341 343 343 344 349 355 355 356 356 356 356 356 356 354 349 342 339 336 336 338 338 339 342 342 338 336 334 332 334 336 335 335 337 337 337 338
351 346 344 344 345 345 346 347 346 345 349 351 348 349 347 343 342 345 349 349 345 345 344 340 339 337 341 348 349 350 351 344 341 345 343 340 342 341 341 341 339 338 339 336 333 335 337 339 342 345 348 349 344 344 351 354 353 354 355 355 356 356 356 354 349 343 338 336 337 338 340 343 343 337 334 333 333 334 335 334 337 340 341 343 345
357 349 345 344 344 346 346 347 348 347 350 351 350 353 352 347 343 340 344 351 348 344 344 344 342 336 335 343 343 342 345 341 337 342 342 338 339 341 342 341 339 337 336 336 336 335 337 340 343 347 353 356 351 344 347 351 350 350 349 345 343 344 345 346 345 341 337 336 335 335 335 336 334 331 330 331 332 335 337 340 344 346 348 350 349
359 351 346 347 348 347 346 348 351 351 350 353 353 353 355 353 349 342 340 349 353 348 343 344 345 339 334 337 339 336 338 337 336 340 343 340 336 337 340 340 337 335 334 335 337 337 340 342 345 349 355 357 353 349 351 353 349 345 344 340 338 337 335 334 335 337 338 339 337 335 332 330 330 329 331 334 338 342 348 351 352 351 352 353 353
362 356 350 351 349 347 345 348 352 352 350 354 356 355 355 356 354 347 340 345 354 354 347 341 341 339 334 335 336 335 335 335 336 338 343 345 339 334 337 338 335 333 332 333 334 335 337 338 343 349 353 355 356 355 355 354 346 340 338 338 341 342 341 339 338 340 344 344 339 334 332 331 333 333 338 345 350 352 354 354 354 354 355 356 354
363 360 356 355 351 346 344 345 351 353 349 351 357 357 355 356 356 352 345 343 350 356 353 344 338 335 334 334 334 334 334 334 335 335 339 345 345 337 337 340 338 334 333 332 334 339 340 339 342 345 345 345 349 352 354 351 345 339 337 339 343 347 348 350 350 351 353 351 344 339 338 338 338 339 346 352 354 355 356 356 356 356 356 356 355
363 362 359 356 352 345 342 343 348 353 352 351 356 358 357 355 356 356 353 347 348 352 355 352 343 336 333 333 333 333 333 333 335 334 334 340 344 340 336 338 339 337 334 334 336 344 348 348 349 348 344 338 336 340 345 345 342 341 340 343 346 347 347 348 350 351 352 349 343 341 341 341 341 344 352 356 357 357 358 357 357 357 357 357 357
363 364 360 355 350 344 343 343 346 352 355 354 354 357 358 356 355 358 357 351 349 351 353 355 352 345 335 332 333 333 333 333 333 334 333 334 338 340 335 332 335 339 339 337 340 344 346 349 351 351 350 346 337 332 333 335 335 336 338 340 342 343 341 342 342 343 342 340 338 340 342 345 348 352 356 359 359 358 358 357 357 356 357 358 358
363 365 362 356 352 348 345 344 345 350 355 354 352 355 359 358 356 358 358 355 351 351 352 355 356 353 344 336 333 333 334 334 332 333 333 331 332 336 336 330 330 336 338 338 343 346 346 345 346 348 351 349 340 332 330 330 330 330 332 333 335 335 335 339 340 339 339 338 339 345 350 352 356 358 359 359 358 358 358 358 357 356 356 356 358
363 365 364 360 356 353 349 345 344 348 353 353 350 351 356 358 357 358 359 358 352 349 351 353 355 357 354 347 338 333 334 335 333 331 331 331 330 331 332 330 327 330 332 332 335 341 344 345 344 345 345 340 333 329 329 329 329 329 329 329 330 330 330 333 335 336 339 341 343 349 353 355 357 358 359 359 359 359 358 357 357 357 356 357 358
364 365 365 363 359 356 351 346 345 345 347 349 347 346 351 356 359 359 360 358 352 347 349 352 354 355 357 357 352 344 340 337 333 331 330 330 330 330 329 331 329 327 328 330 329 330 335 341 344 347 346 339 330 328 328 327 327 329 328 328 329 329 329 330 331 333 336 340 343 345 348 351 354 354 357 359 359 358 358 358 358 357 357 357 357
364 365 366 364 362 358 353 348 345 344 345 345 345 344 345 351 356 358 359 358 352 347 346 350 353 354 355 359 359 356 353 347 335 330 332 331 330 330 329 333 336 334 329 328 328 328 328 331 336 341 344 342 335 329 328 327 327 328 328 328 329 328 329 330 330 331 333 336 339 339 341 347 350 350 354 358 359 358 358 358 358 358 357 356 355
365 365 366 365 363 362 358 351 346 345 344 343 343 343 343 346 350 354 357 356 350 347 349 352 352 350 351 357 360 359 359 356 345 333 331 332 330 330 330 335 343 347 343 337 332 330 329 328 328 330 331 333 330 327 327 327 327 327 327 328 329 330 331 332 332 333 334 336 338 340 341 345 348 350 354 358 358 358 358 358 358 356 356 355 353
365 366 367 366 364 363 362 357 349 345 345 344 343 343 343 345 347 350 354 356 351 346 349 352 351 347 346 353 359 359 357 358 354 342 333 331 331 330 330 333 338 343 346 342 336 333 331 329 327 326 326 326 326 326 327 327 328 330 329 329 329 330 330 331 330 333 336 339 343 345 345 348 349 352 357 358 358 358 358 357 356 355 354 351 344
365 367 367 366 364 363 363 361 355 348 345 344 344 344 345 346 347 348 351 356 356 351 348 350 350 348 346 348 354 357 357 356 355 347 337 333 333 332 331 331 332 334 335 335 333 332 331 329 328 326 326 326 326 326 326 327 329 331 333 334 334 339 344 343 340 341 343 347 350 349 349 350 352 354 357 357 358 357 356 356 355 353 350 343 334
366 366 366 366 364 362 361 360 356 350 347 347 345 345 345 345 346 347 349 354 358 357 352 350 350 350 349 347 349 352 354 354 351 347 341 337 335 335 334 332 332 331 331 331 330 329 330 330 328 328 327 326 326 325 327 327 327 330 333 334 336 342 347 350 352 354 355 356 356 352 350 352 354 356 357 357 357 357 355 355 352 346 339 333 329
365 364 364 364 363 359 359 358 354 351 349 348 346 345 345 345 345 346 346 349 356 359 358 356 355 352 350 348 347 347 351 352 349 346 344 341 339 339 337 336 335 334 332 332 331 331 330 329 328 328 327 327 326 326 326 327 327 330 331 333 335 337 338 344 353 358 358 358 358 355 354 356 358 359 358 357 355 355 353 349 342 334 330 332 333
364 361 361 362 361 358 358 357 353 351 349 347 347 347 346 345 345 345 346 346 352 358 361 360 359 358 354 352 350 348 349 351 350 347 344 343 342 342 341 340 340 337 334 333 333 332 331 330 329 328 327 327 327 327 327 327 329 330 331 333 336 337 341 349 357 360 360 360 359 358 359 361 362 360 358 356 354 351 345 339 333 331 335 341 340
362 362 361 361 359 358 358 356 351 349 348 348 348 349 348 347 346 346 346 347 350 355 359 360 360 360 359 358 356 354 351 351 351 349 345 343 344 344 344 345 343 341 337 335 334 334 332 330 329 328 327 328 328 327 328 328 328 331 332 333 336 341 349 355 358 359 360 358 357 359 361 363 362 360 357 354 351 345 339 336 336 338 341 340 337
364 364 361 358 358 360 361 357 352 351 351 350 349 350 350 350 348 347 348 350 354 357 359 359 360 361 360 360 360 359 357 354 351 349 346 345 346 348 349 349 348 346 343 339 338 339 337 334 330 329 328 328 328 329 330 329 329 330 331 332 335 342 349 354 355 356 357 357 356 357 359 359 359 356 351 347 343 342 342 343 342 341 339 334 328
365 363 358 357 360 362 361 358 353 355 355 351 349 349 349 349 350 351 352 353 356 358 359 359 360 360 361 360 361 361 361 358 356 352 350 349 349 350 351 352 351 351 350 346 343 343 344 342 338 335 332 329 330 331 331 331 331 331 331 332 335 338 344 349 353 353 354 357 358 358 358 357 354 349 345 343 342 342 342 339 336 333 330 326 324
364 360 356 358 360 361 360 358 354 357 358 353 349 349 348 349 351 351 352 355 358 359 358 358 360 361 361 361 362 363 362 362 361 358 356 354 352 352 352 353 354 354 354 353 351 349 351 352 351 347 343 341 338 337 336 336 335 332 332 334 337 341 345 349 352 353 355 357 359 358 358 356 351 346 345 343 340 337 334 330 328 327 325 323 323
364 361 357 357 359 361 362 359 354 357 361 358 353 351 349 349 352 352 352 356 359 361 361 360 359 361 363 363 364 364 362 363 362 361 359 358 357 356 355 355 356 356 356 357 358 357 357 358 358 356 354 353 349 345 343 342 341 338 339 340 342 346 349 351 353 355 356 358 358 357 354 349 345 343 341 336 331 329 327 327 326 324 323 322 323
364 362 358 357 359 361 362 359 356 360 364 361 355 353 352 351 352 355 356 358 360 363 364 362 361 361 363 364 364 363 363 363 363 362 362 362 361 359 358 357 357 357 357 358 359 359 358 359 359 359 358 356 354 351 349 348 346 346 346 347 348 350 351 354 356 357 358 358 356 352 349 346 344 342 336 330 327 327 326 325 324 322 322 322 323
364 362 361 360 360 362 364 363 361 360 364 363 358 354 354 353 354 358 360 362 362 364 364 364 362 362 364 364 364 363 364 364 364 363 363 363 363 361 360 359 359 358 359 358 359 359 358 358 357 358 358 358 357 356 354 352 350 350 351 351 352 352 354 356 357 357 358 355 351 347 346 344 341 337 331 327 327 327 325 323 322 322 322 322 322
363 364 365 363 363 364 364 364 364 363 365 365 362 359 357 356 358 360 362 362 363 363 363 363 364 364 364 364 364 365 364 365 365 365 364 364 364 363 363 362 361 359 359 359 359 359 359 358 357 357 358 358 358 358 357 354 353 353 353 353 354 354 356 357 356 357 357 354 351 349 345 339 334 330 327 328 328 325 324 322 321 321 321 321 321
365 367 367 365 365 364 363 363 365 366 366 365 365 364 363 362 363 363 360 361 363 364 363 364 365 364 365 365 365 365 366 366 366 366 364 365 365 365 364 365 363 360 360 360 360 359 359 358 358 357 357 357 358 358 357 356 355 354 354 355 355 356 357 358 358 359 358 356 355 351 341 332 329 327 327 330 329 324 321 321 320 320 320 320 321
366 368 368 367 366 364 363 364 365 367 367 366 365 366 365 364 365 366 363 362 363 364 364 364 365 365 365 366 365 366 366 366 366 366 366 366 365 365 365 365 364 362 361 361 361 360 359 359 359 358 357 357 357 357 356 356 355 355 355 355 355 357 358 358 359 359 355 351 349 343 332 327 329 328 329 331 329 323 320 320 320 320 321 320 321
367 368 369 369 367 364 365 366 366 367 368 366 365 366 366 365 365 367 366 364 363 364 364 365 365 366 365 365 365 366 366 366 365 365 366 366 366 366 366 366 365 363 362 362 362 360 359 359 359 358 358 357 357 357 356 356 356 356 355 356 357 358 357 357 358 357 347 337 334 331 327 327 330 330 331 331 327 321 320 320 319 320 321 320 321
367 369 369 369 368 366 366 366 367 367 368 367 366 366 366 366 365 365 367 366 365 365 364 365 366 366 365 364 365 365 365 365 365 365 365 366 366 365 365 365 365 364 363 363 362 361 359 359 359 358 358 357 357 356 356 355 355 356 356 357 357 357 357 357 356 349 337 329 328 330 329 327 327 328 331 330 325 320 320 320 320 320 320 320 322
366 367 367 368 368 366 366 368 368 367 368 368 368 367 366 366 366 365 366 367 367 366 365 365 365 366 365 365 364 364 364 364 364 365 366 366 365 365 365 365 364 364 363 362 361 361 359 358 358 358 357 357 357 356 355 354 354 356 357 357 358 358 356 354 348 339 332 328 328 328 328 327 327 329 330 328 323 321 322 321 320 321 322 323 325
366 367 368 368 367 366 367 368 367 368 368 368 370 369 367 366 366 365 365 366 367 366 366 365 365 365 366 366 364 364 365 365 364 365 365 365 366 366 365 365 364 363 362 362 362 361 359 357 358 358 356 356 356 355 355 355 355 357 357 356 356 353 348 343 337 333 331 329 326 325 328 329 330 330 329 325 324 325 327 326 326 327 328 328 328
366 366 367 368 366 365 367 368 368 368 368 368 370 371 370 368 367 366 366 366 366 366 366 366 366 366 365 365 365 365 365 365 365 365 365 365 365 365 364 364 363 363 363 362 361 361 359 358 358 357 356 356 356 356 357 356 356 356 354 351 347 342 335 330 328 328 329 329 328 329 330 330 330 330 330 329 329 329 329 330 331 331 331 331 329
366 366 366 368 367 365 365 367 367 368 367 367 368 370 369 368 367 367 366 365 365 365 365 365 366 366 364 364 364 364 365 365 364 364 364 364 364 363 363 364 363 363 363 361 360 360 360 359 358 357 356 356 356 356 356 354 353 350 346 342 339 335 331 327 326 326 328 328 329 330 331 330 330 330 329 330 331 331 331 332 332 331 331 331 329
365 366 366 366 365 365 366 367 367 367 367 368 367 366 366 365 364 366 366 364 364 364 363 363 364 364 363 362 362 362 363 363 363 363 363 363 363 362 363 363 364 364 363 362 361 361 360 360 359 357 355 355 355 353 351 350 347 342 338 336 336 334 330 327 326 326 326 326 329 331 331 329 328 328 328 329 331 331 331 331 330 330 330 330 328
361 363 363 363 362 363 365 366 365 365 366 366 365 364 363 362 363 364 364 364 363 362 361 359 360 361 362 362 362 362 361 362 362 363 363 363 363 364 364 364 363 363 363 364 363 362 361 360 358 356 355 354 352 348 345 343 340 336 335 335 332 328 327 328 329 326 324 326 331 332 329 327 328 329 329 329 331 331 330 330 329 329 329 328 328
360 360 361 361 362 363 364 364 363 363 363 362 362 362 363 363 364 363 362 362 361 360 358 358 360 361 361 361 361 361 362 362 362 363 363 364 364 363 360 358 357 357 357 359 361 359 359 357 356 353 352 350 346 342 341 340 337 336 335 333 328 324 325 328 329 325 323 326 331 331 327 327 330 331 329 329 330 330 329 329 329 329 328 328 328
355 358 359 360 360 361 361 362 362 361 361 361 362 363 363 364 363 361 359 359 359 357 357 358 360 361 361 361 360 360 361 361 362 363 363 363 361 358 354 351 350 350 352 356 356 354 352 351 350 347 345 342 339 339 338 337 333 331 329 328 327 327 327 326 326 325 322 325 330 331 329 329 331 331 330 330 330 329 329 328 328 328 328 328 328
350 353 355 356 356 357 358 359 360 360 360 361 361 361 361 362 361 361 359 359 358 357 356 357 357 358 358 358 359 359 358 359 359 359 358 357 355 351 348 346 345 345 347 349 348 345 344 342 341 339 338 336 335 334 333 331 328 326 326 326 327 327 326 326 327 325 322 324 329 331 330 330 330 330 329 330 329 329 329 328 328 328 328 328 328
344 346 350 352 353 354 355 356 357 357 357 357 357 358 358 359 360 359 357 355 355 355 354 354 355 354 354 355 355 353 351 351 351 351 351 349 347 344 343 342 341 342 341 341 341 341 340 338 336 334 333 332 330 328 329 329 329 328 329 329 329 329 328 328 329 328 326 327 330 329 329 330 329 329 329 329 328 328 328 328 328 329 328 328 327
340 342 343 346 348 349 351 352 353 354 354 354 355 355 355 355 355 354 353 352 353 354 355 355 353 352 351 352 351 349 347 346 345 346 347 346 344 342 341 339 338 338 337 337 338 339 337 335 333 332 330 328 326 327 328 330 330 330 330 330 330 330 329 329 330 329 328 329 328 328 328 328 328 328 329 328 327 327 328 328 328 328 327 327 327
338 339 340 341 341 343 345 347 348 349 350 351 352 352 352 351 352 353 353 351 352 353 354 354 351 349 349 348 347 346 346 345 344 343 343 342 340 339 338 337 336 336 336 336 336 336 334 333 331 330 329 327 325 326 328 329 329 330 330 329 330 330 329 329 329 329 328 328 328 327 327 327 327 327 327 327 326 327 327 327 327 327 326 326 326
336 337 338 339 339 339 341 342 343 344 345 346 347 348 349 349 350 351 351 350 349 349 350 349 346 345 344 342 340 341 342 341 339 337 336 336 336 335 335 336 336 335 335 335 334 333 331 331 329 328 328 328 327 327 329 329 329 329 330 329 329 329 329 328 328 328 327 326 326 325 326 326 326 326 326 326 326 326 326 325 325 325 325 324 324
334 336 336 337 337 338 339 340 341 341 342 342 342 343 344 345 346 346 347 346 344 343 343 342 341 340 340 338 337 337 337 336 333 330 329 331 332 333 333 333 332 331 330 330 329 329 329 329 329 329 329 329 329 329 329 328 328 329 329 329 328 328 328 328 327 327 326 325 324 325 324 324 324 325 325 325 325 325 324 323 322 322 323 322 322
332 334 335 335 335 336 336 338 339 340 341 340 339 339 339 339 340 341 341 341 340 338 338 337 336 336 336 336 334 334 334 333 331 328 327 328 329 330 330 330 329 329 329 329 329 328 328 328 328 328 328 328 328 329 328 328 328 328 327 327 327 327 327 327 326 326 326 325 324 323 323 322 322 322 322 322 323 323 321 320 320 320 320 320 320
330 332 333 334 335 335 335 336 337 339 340 339 338 337 336 335 336 336 336 337 337 337 336 335 334 333 333 333 333 333 332 331 330 329 329 328 328 328 328 328 328 328 328 327 327 327 327 326 326 326 326 327 327 327 327 327 326 326 326 326 326 326 325 326 325 325 324 324 323 322 322 322 322 322 322 322 323 321 318 317 316 316 317 317 318
330 331 331 333 333 334 335 335 336 337 337 337 336 335 333 332 332 332 333 333 333 333 332 332 331 330 329 330 331 331 330 330 329 329 329 328 327 326 326 326 326 326 326 326 326 326 325 325 325 324 324 324 324 324 325 325 325 325 325 325 325 325 325 324 324 324 323 323 323 322 322 322 322 322 321 320 318 316 314 314 314 314 314 314 313
329 329 330 331 332 333 333 333 334 334 334 334 333 332 331 330 329 329 329 329 329 329 328 328 328 328 327 328 329 330 330 330 330 330 329 327 326 325 325 325 325 324 324 324 324 323 324 324 324 323 323 323 323 323 323 323 323 323 323 322 322 322 322 322 322 322 322 322 322 322 322 321 321 320 318 315 313 313 313 314 314 313 313 313 313
328 328 329 330 331 331 331 332 332 332 331 330 329 328 327 327 327 326 325 325 325 325 325 325 325 326 327 328 329 329 329 329 328 327 326 325 325 324 324 323 323 323 323 323 323 323 323 323 323 323 323 322 322 322 322 322 322 323 322 322 322 321 321 321 320 320 320 320 319 319 319 319 318 316 315 313 312 313 313 313 313 313 313 313 314
326 326 327 328 329 329 329 329 329 328 328 327 327 325 325 324 324 323 323 323 323 322 323 324 324 325 325 326 327 327 326 326 325 325 324 324 324 323 323 323 323 323 322 322 322 322 322 322 322 322 322 322 321 321 321 321 321 320 320 320 320 320 319 319 318 318 318 317 317 317 317 316 316 315 315 314 314 314 314 314 314 314 314 314 313
Wind_Speed
43 44 44 43 42 41 39 36 34 33 32 31 31 30 29 28 27 25 24 24 23 25 26 24 22 22 22 21 20 19 19 19 18 18 17 16 16 15 14 14 13 12 12 12 12 12 11 11 11 11 11 11 10 9 9 10 11 10 9 10 10 10 11 12 13 16 15 14 15 16 16 16 17 19 21 23 24 24 25 27 28 28 28 28 28
44 45 45 44 44 43 41 38 36 34 32 31 32 30 29 30 28 26 25 25 25 24 25 26 25 24 22 21 20 20 20 21 20 19 18 17 17 16 16 16 16 14 14 13 13 13 13 12 11 12 12 12 12 11 10 10 11 10 10 11 11 11 12 14 15 17 18 18 18 19 19 19 20 22 24 26 28 27 28 29 29 28 28 28 28
42 44 45 45 45 44 42 39 37 36 34 32 32 30 30 31 30 29 27 26 26 26 25 25 26 26 24 22 23 22 22 23 22 20 20 19 18 18 17 18 18 17 17 16 14 14 13 13 12 12 12 12 12 12 11 12 12 12 12 12 12 11 12 15 17 20 21 21 21 21 20 20 22 24 26 28 28 28 28 29 29 28 28 27 27
41 44 46 46 45 44 42 40 38 37 35 34 32 30 30 30 30 31 29 26 26 28 27 26 26 27 27 26 26 25 24 24 23 21 22 22 20 19 19 19 19 18 18 17 15 14 14 13 13 13 13 13 13 13 12 13 13 13 14 14 13 13 14 16 19 21 23 24 24 24 24 25 26 27 27 27 28 28 27 26 24 23 23 22 22
40 43 46 45 44 44 43 41 38 38 36 34 33 31 29 28 29 31 31 28 25 27 28 28 27 29 29 28 28 28 27 26 24 22 22 23 23 22 21 21 21 20 19 17 16 16 15 15 15 14 14 14 15 14 13 13 14 14 14 14 14 15 16 18 19 21 22 24 25 26 27 29 30 29 28 28 28 24 20 18 17 17 18 18 18
39 42 43 44 44 45 45 42 39 39 38 35 32 32 30 28 28 30 31 30 27 26 28 30 30 30 30 30 30 29 28 27 26 24 22 22 23 22 22 22 22 22 21 20 19 18 18 18 17 16 16 16 15 15 14 14 15 15 15 15 15 16 17 19 20 21 21 23 26 28 29 30 31 31 29 25 21 18 17 17 16 16 17 18 19
38 40 41 42 44 46 46 45 42 40 39 37 32 31 30 29 28 28 30 30 29 27 27 29 31 32 31 30 30 30 29 28 27 26 24 23 23 22 22 22 22 22 21 21 19 18 18 19 19 19 19 18 17 16 15 16 16 16 17 17 16 16 16 17 18 19 19 20 25 28 29 29 30 30 27 22 18 18 18 19 18 18 18 19 21
38 40 40 41 44 47 47 45 43 40 39 38 34 30 30 30 29 28 29 30 30 28 27 27 30 32 32 31 31 30 30 29 29 28 26 25 24 24 23 22 22 22 22 21 20 19 18 18 19 19 19 19 18 17 17 17 17 17 18 17 17 17 17 17 18 19 19 22 26 28 28 29 30 29 25 20 17 18 19 20 22 21 19 20 21
38 39 41 43 45 46 46 45 44 41 38 38 36 33 31 31 30 29 29 30 30 29 27 26 27 30 32 32 31 31 31 31 30 29 28 27 26 25 25 24 23 23 22 22 21 20 20 19 19 19 20 20 20 19 18 17 18 18 18 19 19 19 20 20 21 22 23 25 28 28 28 29 27 25 23 17 15 18 20 21 23 23 23 23 20
38 39 40 43 45 45 45 45 44 41 39 39 38 36 33 31 31 31 30 30 30 29 29 27 26 27 30 32 32 32 32 32 31 30 28 28 27 26 27 27 25 24 24 23 22 21 21 20 20 20 21 22 23 21 19 18 19 19 19 20 21 22 22 22 23 24 26 28 28 26 26 26 24 22 21 18 17 18 19 20 23 26 27 27 22
39 39 40 42 44 44 45 45 44 43 41 40 41 38 35 33 33 32 31 31 31 31 30 29 27 26 27 29 31 32 33 33 32 30 28 27 26 26 27 28 27 26 26 26 25 23 22 21 21 21 22 24 25 23 22 21 21 21 22 22 23 24 25 25 26 27 27 28 27 25 25 26 24 22 21 20 19 19 20 21 24 26 26 26 25
38 38 38 40 43 44 44 45 45 45 44 42 42 41 38 36 34 34 33 33 33 33 32 31 30 28 25 26 28 30 32 33 33 30 28 27 26 26 27 27 28 28 27 27 27 27 25 23 22 21 22 24 25 25 24 23 22 22 23 24 25 26 27 28 28 28 28 29 29 29 28 27 26 25 23 22 23 23 24 24 24 24 24 24 28
37 38 37 39 42 44 44 45 44 45 45 44 43 42 41 39 38 36 35 35 35 34 33 32 32 30 28 25 26 27 27 30 33 32 29 27 26 26 26 27 27 27 28 28 28 28 28 26 25 24 23 24 26 27 27 26 24 24 24 25 26 27 28 29 29 29 30 30 31 33 32 30 29 27 24 24 26 27 27 27 24 23 23 24 28
36 37 36 38 41 40 41 44 45 44 45 45 44 42 42 42 41 39 37 36 36 36 34 32 32 33 31 28 26 26 25 27 31 31 29 28 27 26 27 26 25 25 25 27 28 29 29 28 28 28 27 27 28 29 29 29 28 27 26 27 27 27 28 28 29 29 30 31 32 33 32 30 29 28 25 25 27 28 29 28 25 26 27 26 29
35 36 36 37 39 36 33 38 44 45 45 45 45 43 43 43 42 41 38 36 37 38 36 34 34 35 35 31 28 27 26 27 29 30 30 28 28 28 28 29 28 27 27 28 29 30 30 30 30 30 29 29 30 29 30 30 29 28 27 28 28 28 28 28 28 28 28 30 31 31 30 29 28 27 26 25 26 28 30 29 28 30 30 30 32
35 36 37 38 39 36 31 32 40 45 45 45 46 45 43 43 43 42 39 35 35 37 37 36 35 36 36 34 32 29 28 28 30 32 31 29 29 29 31 32 33 32 32 32 32 32 32 32 32 31 31 31 30 30 30 30 29 28 26 26 26 25 25 26 26 26 25 24 25 26 27 28 28 28 27 26 26 28 29 30 29 29 30 32 33
37 38 39 39 39 38 35 34 38 43 44 45 46 46 45 44 43 43 42 37 33 34 36 36 36 36 36 35 34 32 31 31 33 34 34 32 31 30 32 33 34 35 35 35 35 35 35 35 34 34 34 33 32 31 30 30 30 29 28 27 27 25 25 24 23 24 24 23 22 22 23 26 28 29 28 26 25 25 27 28 27 27 29 32 32
40 41 41 40 40 40 40 39 41 42 43 44 45 46 45 45 44 43 43 40 34 31 31 33 34 35 35 36 35 34 32 32 34 35 35 34 32 31 32 33 34 35 36 36 37 37 37 37 36 36 36 35 33 32 31 31 31 30 29 29 28 28 28 25 22 21 23 22 21 21 23 27 29 28 25 22 22 22 24 25 24 24 26 26 27
43 44 42 40 40 40 40 41 41 40 41 43 44 45 45 44 43 43 42 42 37 31 28 29 30 31 33 34 34 34 33 32 34 35 35 34 33 31 31 32 33 34 35 36 37 38 38 39 38 38 37 36 35 34 33 32 32 31 30 29 29 29 28 24 20 19 20 20 20 21 22 25 27 25 23 20 19 20 20 21 22 22 21 20 22
43 42 41 39 38 38 38 39 40 39 39 41 42 42 43 42 42 42 41 40 38 33 29 28 27 28 29 29 30 32 33 33 34 35 35 34 32 30 30 31 32 33 33 35 36 37 38 39 39 39 38 37 36 35 34 33 33 32 31 31 30 28 25 21 20 20 21 21 21 20 22 24 25 25 23 20 18 18 18 18 18 17 16 19 24
39 38 39 39 37 36 36 37 38 38 37 39 40 40 40 39 39 40 39 37 34 31 29 28 27 26 27 26 26 28 30 32 34 34 34 33 31 30 30 31 31 31 32 34 34 35 36 37 39 39 38 37 36 36 35 34 33 33 34 33 32 30 27 25 24 24 24 23 23 24 23 22 20 18 17 14 13 13 13 12 13 15 18 22 25
38 39 39 38 36 35 35 35 36 35 35 37 38 38 38 38 37 37 36 34 31 30 30 29 27 25 25 25 25 25 26 28 31 32 32 32 31 30 29 30 30 30 30 32 33 33 33 34 36 37 37 37 36 35 35 34 34 35 35 34 33 33 32 30 28 26 24 23 23 21 18 14 13 13 11 8 7 8 10 12 16 19 21 22 20
37 39 39 37 35 34 34 34 34 32 33 36 37 37 37 36 35 35 34 32 30 30 30 30 28 25 24 24 24 25 25 26 27 29 30 30 30 30 28 28 29 29 29 31 31 31 30 29 30 32 32 33 33 32 32 32 33 35 34 33 33 33 33 31 28 26 25 23 22 20 16 13 12 10 9 8 10 13 17 18 20 20 20 19 18
36 37 37 37 35 33 32 33 32 30 31 34 35 35 35 35 34 34 33 31 29 28 28 30 29 26 24 23 23 24 25 25 26 28 28 28 29 28 27 27 28 28 29 28 25 24 25 25 25 26 26 27 28 29 29 30 32 32 32 32 32 31 31 29 27 25 23 20 17 16 14 12 11 11 12 14 16 18 20 20 19 18 17 17 17
34 36 36 35 34 32 30 31 31 29 29 31 33 33 33 33 32 32 31 30 28 27 26 27 27 26 24 23 23 23 23 23 24 25 25 25 26 27 28 28 28 28 29 28 24 24 26 26 24 25 25 25 25 26 27 29 30 30 30 30 30 29 29 27 25 23 19 14 11 10 10 11 15 18 17 16 17 18 19 18 17 16 15 15 15
33 33 33 33 32 30 28 27 28 28 27 28 30 31 30 30 31 30 29 28 27 26 25 24 24 24 24 23 23 23 23 22 23 24 24 23 23 24 25 27 29 28 28 27 28 29 30 29 27 27 27 26 26 26 27 28 29 29 29 28 28 28 26 24 21 17 13 10 9 10 11 14 17 19 17 16 17 17 17 16 15 14 14 13 13
31 30 29 29 30 29 27 26 25 25 26 25 26 26 26 26 27 28 28 27 27 26 25 24 24 24 23 23 22 22 22 23 23 24 25 24 23 22 21 22 26 28 28 27 28 29 31 31 31 30 29 28 28 29 29 29 29 29 28 28 27 25 23 21 19 16 15 15 16 17 18 17 16 16 15 15 15 15 14 14 13 12 12 12 13
28 27 26 27 27 27 27 25 24 24 25 24 22 23 24 24 25 27 28 27 26 25 26 25 25 24 23 22 21 22 23 23 24 24 26 26 24 23 21 20 22 27 29 29 28 27 29 31 32 32 32 31 31 31 31 31 31 30 29 28 26 23 23 24 24 24 25 24 23 22 20 18 15 14 12 11 12 13 12 11 11 10 11 12 14
26 25 25 25 26 26 25 25 24 23 23 23 23 23 25 25 24 24 25 26 26 26 25 25 25 24 23 22 23 23 24 24 25 25 25 24 23 22 22 21 21 25 28 28 27 28 29 30 31 33 35 34 33 33 34 34 33 32 32 30 26 24 26 28 29 29 27 24 23 22 18 15 13 12 9 8 11 12 10 9 10 10 11 13 14
24 25 24 24 24 25 25 23 24 23 22 24 27 27 27 28 27 26 25 27 28 27 26 26 26 25 24 24 25 24 24 24 23 23 23 23 21 20 19 17 17 20 23 25 26 28 30 32 31 33 35 35 34 35 35 35 34 34 33 30 27 26 28 29 30 28 24 20 18 17 14 12 10 8 7 8 10 11 10 9 10 11 11 13 14
23 24 24 23 23 25 24 23 24 24 23 24 27 28 28 28 28 28 28 28 28 28 29 29 28 26 25 26 26 25 24 23 21 20 21 22 21 21 20 18 17 17 19 23 27 30 32 33 33 33 35 35 35 35 33 31 32 33 32 30 29 30 29 29 27 24 20 16 14 12 12 13 11 8 7 8 9 10 10 10 10 10 11 12 14
23 21 21 21 22 23 23 22 23 23 24 24 25 26 28 28 29 30 30 29 28 28 29 30 30 27 26 26 26 25 24 23 21 19 19 20 21 21 21 21 21 19 19 22 27 30 30 31 31 32 32 33 33 32 28 26 28 31 32 31 31 30 28 26 23 20 17 15 13 11 12 13 11 8 7 8 9 10 9 9 9 9 10 11 12
19 19 19 20 22 23 22 22 22 23 24 24 22 22 24 27 28 30 31 30 29 27 27 28 30 29 27 26 25 25 24 23 23 21 20 20 20 21 22 21 20 20 21 23 27 29 29 29 29 28 28 30 30 28 27 27 29 31 32 30 28 25 23 21 21 18 16 14 13 13 13 12 9 8 8 8 9 9 8 9 9 9 9 10 11
17 17 18 19 20 20 20 22 22 22 22 23 22 20 19 21 22 25 29 31 31 30 28 28 28 29 29 28 27 27 26 25 24 23 22 22 22 23 23 22 20 20 23 25 27 28 28 28 28 26 26 29 30 30 31 32 31 29 26 21 18 17 16 15 14 13 12 13 14 13 11 10 8 7 7 7 7 7 7 7 7 7 8 9 11
17 18 19 19 18 17 19 21 21 20 20 23 22 19 16 17 18 19 22 25 28 31 32 31 29 28 28 28 29 29 29 28 27 26 25 24 24 24 25 24 23 23 25 26 27 27 27 28 29 27 27 29 30 31 32 30 25 21 17 15 13 14 14 13 12 12 13 15 14 11 10 10 10 9 8 7 7 7 7 6 7 7 8 9 10
15 19 21 19 16 16 17 18 18 17 17 19 20 18 16 16 17 17 18 20 23 28 31 31 31 30 29 29 29 28 28 27 27 26 24 24 25 25 24 24 26 27 28 29 29 29 29 30 29 28 28 29 29 27 25 23 19 17 18 21 21 18 15 14 14 15 16 14 11 10 12 13 12 10 8 7 8 8 8 7 7 8 8 9 10
15 17 19 17 15 14 14 14 15 17 15 14 15 16 15 15 16 18 20 22 22 24 25 25 28 31 31 29 28 26 25 24 22 21 22 23 24 24 24 25 26 29 31 32 31 31 31 30 30 30 31 30 26 22 19 21 24 25 25 27 23 16 13 15 17 18 17 15 12 12 16 14 11 10 9 8 8 9 8 8 8 8 9 10 11
16 16 16 17 15 14 13 13 14 15 13 11 12 14 16 19 19 18 20 23 22 22 22 20 21 23 24 23 22 21 20 19 19 20 21 22 23 23 22 20 20 23 26 29 30 30 30 30 30 30 28 24 20 20 21 25 28 27 25 23 18 12 13 17 18 17 17 15 12 13 15 13 10 10 9 8 8 9 8 8 9 9 10 11 12
14 14 13 13 14 13 12 12 12 11 10 9 12 14 17 21 21 17 17 18 17 17 17 16 16 16 17 17 18 17 16 16 18 19 21 23 24 23 20 17 16 17 19 22 24 24 24 24 25 23 20 17 17 20 24 26 26 24 21 19 17 16 17 18 16 15 16 15 11 10 12 12 11 11 9 8 8 9 10 11 11 11 12 13 13
14 13 12 12 12 12 12 13 15 14 12 11 13 14 15 18 19 18 16 14 13 13 14 15 15 15 14 14 14 15 16 17 18 19 20 22 21 19 16 14 13 13 13 14 17 19 19 19 20 21 21 20 18 17 18 19 18 18 18 18 16 16 16 14 11 12 14 13 12 12 13 13 12 10 9 8 9 11 12 12 12 13 14 15 15
16 14 13 14 14 12 11 11 13 13 12 11 11 12 13 15 17 16 15 13 14 14 15 15 16 16 15 14 15 15 14 15 16 17 18 18 17 16 14 13 13 14 15 17 20 22 21 20 21 22 23 21 18 15 14 13 12 12 13 14 12 11 11 11 10 11 13 13 13 13 13 13 11 10 10 11 11 13 14 13 14 14 15 16 16
16 15 13 12 12 11 10 9 7 6 6 6 6 8 11 12 14 15 15 16 17 17 16 17 17 16 16 18 19 18 16 16 17 18 19 20 20 21 20 19 18 19 20 21 22 22 22 22 23 23 22 21 20 18 16 14 13 11 10 11 12 11 10 10 11 12 13 12 11 12 12 12 12 12 12 13 13 13 13 14 15 16 16 17 18
14 16 16 15 13 11 9 7 5 4 3 3 4 7 11 12 13 15 16 17 18 18 17 17 17 17 18 20 22 22 21 21 21 22 22 22 23 23 23 22 21 20 21 22 22 21 21 22 23 22 21 21 22 21 18 16 17 17 16 17 17 17 16 15 15 15 14 12 11 11 11 11 12 13 13 14 15 15 15 15 16 16 17 18 19
13 14 16 15 14 14 12 10 8 6 5 4 2 4 8 10 12 14 15 16 16 16 15 16 18 20 21 22 23 24 23 20 18 17 18 19 21 21 21 21 20 19 19 19 18 17 16 16 16 15 15 15 16 16 15 15 17 19 19 19 20 20 20 19 19 18 16 13 13 13 12 10 11 11 11 12 13 14 13 13 14 15 16 17 18
11 12 14 14 14 13 12 10 9 8 6 5 3 1 3 7 9 12 14 16 16 16 16 18 20 21 23 24 24 23 21 17 14 14 16 18 20 20 19 18 17 16 15 14 14 13 12 11 11 11 12 12 13 13 14 14 16 17 18 19 18 19 19 19 19 18 16 14 14 15 15 14 14 14 13 14 15 15 14 14 14 15 16 17 17
11 10 11 12 13 13 12 10 8 6 5 4 3 1 2 5 8 11 13 16 19 20 21 21 21 22 23 23 22 20 18 17 17 18 19 19 19 18 17 16 16 15 15 14 14 14 13 13 13 13 13 13 14 14 14 14 14 15 15 15 14 14 15 15 15 15 15 14 13 13 13 14 14 14 14 15 16 16 15 14 15 15 15 15 15
10 10 10 11 11 11 10 9 7 5 3 2 2 2 4 6 9 11 14 16 19 21 22 23 23 22 22 22 22 20 20 20 19 19 18 18 17 17 17 17 16 16 15 15 15 14 13 12 12 12 11 11 11 10 10 10 9 9 9 9 9 8 9 9 9 10 11 11 11 11 12 12 13 14 15 16 17 16 15 14 14 14 13 14 15
10 10 9 9 9 8 8 7 7 4 2 2 3 4 6 7 9 12 14 16 18 19 19 20 21 21 21 21 21 20 20 19 18 17 17 17 17 18 17 16 15 14 14 13 12 10 9 8 7 7 6 6 6 7 7 7 7 6 6 6 6 6 6 7 8 9 10 11 12 13 13 14 15 16 16 16 15 14 12 12 12 13 14 15 16
9 9 8 7 6 6 6 5 4 3 2 3 4 6 7 8 10 11 12 14 15 16 16 16 17 17 17 18 17 17 17 17 16 16 17 17 17 17 16 14 14 14 13 12 10 9 8 8 7 6 6 5 5 6 6 6 6 5 5 5 5 5 6 7 8 9 10 11 12 13 14 15 16 16 15 14 13 13 13 14 14 16 17 18 17
7 7 6 5 5 4 4 3 2 2 3 4 5 7 8 9 10 10 11 12 12 13 14 15 16 18 18 18 18 19 19 19 18 17 17 17 16 15 13 12 12 12 11 10 9 9 9 8 7 6 6 5 5 4 4 3 3 4 4 4 5 7 8 9 10 10 11 12 13 14 15 15 16 16 16 15 15 17 18 18 18 19 19 19 18
5 5 5 5 5 4 4 4 3 3 4 4 5 7 8 9 10 11 11 12 12 13 14 16 18 20 21 21 21 21 20 18 17 16 15 15 15 13 11 10 10 10 10 9 8 7 8 7 5 4 3 3 2 2 3 4 4 5 5 6 7 8 9 10 11 10 10 10 11 12 12 13 14 14 15 15 16 17 17 17 17 17 17 17 17
Wind_Direction
214 215 215 216 216 217 217 216 213 211 211 213 215 218 217 216 216 214 213 212 212 218 220 217 220 224 222 218 215 215 221 224 221 221 220 219 223 225 224 232 238 240 244 239 230 230 235 237 238 239 239 241 244 243 241 249 259 263 261 263 269 277 284 291 296 301 305 304 301 300 299 294 291 292 294 298 302 303 304 307 308 308 308 309 308
212 214 214 214 216 217 218 217 215 212 211 213 215 217 218 218 215 212 212 214 214 216 220 220 219 221 220 215 213 211 214 222 222 222 225 224 226 229 226 230 238 240 243 244 236 232 235 240 242 243 243 245 246 244 243 246 251 257 260 261 262 265 272 284 293 299 302 303 300 299 300 297 296 299 302 304 306 305 304 305 306 305 307 309 309
208 212 213 214 215 217 217 216 217 216 212 213 216 215 218 220 217 214 212 213 217 218 219 221 221 222 219 215 216 214 214 222 222 220 226 228 227 230 231 234 238 240 242 248 248 242 240 242 243 244 245 246 251 249 243 242 243 246 250 253 257 260 265 275 285 292 296 298 296 295 294 292 291 296 300 302 302 301 301 303 304 303 305 305 305
202 210 213 214 214 215 215 215 216 216 213 213 214 212 214 219 219 218 215 211 216 220 219 220 221 223 221 218 221 222 220 226 227 222 227 232 230 229 231 235 239 241 244 248 251 251 246 244 243 242 240 242 250 253 248 247 249 249 252 258 265 270 271 273 279 287 292 294 296 298 297 298 300 302 303 302 301 302 301 301 299 298 299 298 298
198 208 212 211 212 213 214 213 212 214 213 210 211 211 209 212 217 219 217 209 209 217 220 219 220 224 223 221 224 227 226 229 230 226 226 232 234 232 231 235 240 243 246 247 247 249 248 247 245 241 237 237 245 252 249 250 255 258 263 270 277 282 285 287 287 287 288 290 295 299 302 305 306 307 306 306 306 306 303 298 296 297 299 300 300
194 204 208 207 209 213 214 212 210 212 212 208 207 210 206 205 211 217 218 211 205 210 218 220 221 224 226 224 226 230 230 231 232 229 226 229 236 237 234 236 241 244 246 248 250 250 249 248 246 243 240 237 240 245 247 250 259 266 272 277 280 280 284 289 291 291 290 292 297 302 304 305 306 307 308 308 306 304 304 305 305 306 306 304 305
191 198 202 202 207 212 214 213 210 210 213 209 204 205 204 202 206 212 216 213 206 205 213 219 222 224 226 227 228 231 232 233 234 233 228 225 232 239 237 235 240 244 245 248 250 249 249 249 247 245 245 244 242 241 245 253 262 271 277 281 279 277 277 279 283 285 285 288 294 298 300 301 302 302 302 302 303 306 310 313 311 309 306 302 307
190 194 198 200 206 213 215 214 211 208 211 211 204 201 203 202 202 206 211 213 209 206 208 215 221 224 226 228 229 231 233 234 234 234 232 227 228 236 239 236 237 241 244 245 245 242 242 245 247 247 248 250 249 246 246 253 262 269 274 277 275 274 275 275 274 275 277 282 288 292 294 296 297 298 298 301 307 307 306 307 306 307 308 306 308
191 193 197 201 207 213 213 213 211 207 209 210 206 201 201 202 201 203 208 211 210 207 206 209 216 222 226 228 228 230 233 234 234 234 234 232 229 233 240 241 239 238 241 243 241 240 240 240 242 245 249 253 256 255 253 256 263 268 271 273 272 273 276 277 277 279 281 285 287 290 293 294 295 297 297 298 302 301 300 301 304 307 309 308 305
192 192 197 203 207 210 212 212 210 207 206 209 208 202 200 201 201 201 206 210 210 208 207 206 210 217 224 227 227 229 231 233 235 235 235 235 234 234 238 243 242 238 239 241 239 239 242 244 243 243 246 253 258 261 262 264 268 271 271 271 270 272 274 274 276 279 282 284 286 288 288 289 291 293 294 298 299 296 294 296 302 307 309 309 309
194 193 196 202 205 208 211 211 210 208 206 210 211 206 201 201 203 202 204 209 212 211 208 206 207 212 218 223 227 229 230 232 235 236 235 235 237 237 237 241 244 242 242 243 242 240 242 246 249 247 247 253 260 264 267 269 270 273 274 273 272 273 273 272 273 275 276 279 282 282 281 284 287 289 293 298 293 289 293 300 305 307 308 308 308
194 193 195 200 203 207 210 210 210 209 209 212 214 212 206 203 203 203 203 208 214 215 212 210 208 209 212 217 222 227 229 232 236 238 237 235 236 238 237 238 242 244 245 245 246 247 247 246 247 249 252 258 263 267 268 268 270 271 273 274 273 274 274 274 274 274 272 273 275 276 277 279 283 288 293 294 290 292 301 306 306 305 304 302 303
194 193 195 199 203 206 210 211 210 210 211 213 215 215 211 207 206 206 205 210 216 218 217 215 212 210 210 212 217 221 224 231 236 238 237 236 234 233 234 235 237 241 245 247 248 250 251 251 249 248 251 257 264 269 271 272 274 273 272 272 272 273 275 276 277 276 273 271 271 275 277 278 281 287 290 289 290 297 303 305 303 301 299 300 304
194 193 194 198 202 205 208 211 212 211 212 214 215 216 214 212 213 212 211 213 218 221 219 218 217 217 214 212 213 216 219 228 237 239 236 234 232 229 230 230 230 233 239 245 248 250 251 253 254 254 254 257 262 267 271 274 276 277 277 276 276 276 275 275 276 276 274 272 272 275 279 280 281 283 284 284 290 298 303 303 301 301 303 305 309
194 193 193 197 202 203 204 209 212 213 212 213 215 216 216 215 216 217 216 217 222 225 223 221 223 225 223 217 214 216 219 225 235 240 237 232 230 228 227 227 229 230 233 239 245 249 251 252 254 256 257 259 261 264 269 272 273 275 277 278 279 279 278 277 277 275 273 272 272 275 278 279 278 279 280 283 290 298 300 298 299 305 309 311 313
193 193 194 198 203 204 201 205 211 214 213 213 215 216 217 217 218 219 219 218 221 227 227 226 227 229 230 227 223 221 223 226 232 240 242 236 231 228 228 228 230 233 236 240 244 247 250 252 255 257 258 259 261 264 266 269 270 270 271 273 275 275 275 279 282 282 280 276 274 276 277 276 275 277 280 285 293 296 295 295 301 308 310 311 315
193 195 197 199 204 207 206 207 211 215 215 214 215 216 217 218 219 221 221 219 218 224 228 229 230 232 233 233 232 230 229 232 237 241 244 243 238 234 232 231 232 234 237 240 244 246 249 251 253 256 258 260 262 263 265 267 268 267 266 267 267 265 265 268 273 278 281 280 280 281 279 275 276 279 284 291 295 293 293 297 304 309 309 310 314
194 200 203 203 207 211 212 213 215 217 216 215 216 217 218 219 220 222 223 222 218 219 225 228 230 232 235 237 238 237 236 237 241 244 245 246 245 242 240 238 237 237 238 240 243 246 249 251 253 255 257 260 262 264 265 266 267 267 266 266 264 264 266 266 263 266 272 275 277 279 280 280 281 285 291 296 295 292 295 299 304 308 308 309 316
199 206 206 205 209 213 213 215 218 218 218 217 217 217 219 220 221 223 225 225 223 219 220 224 227 231 235 237 240 242 240 238 242 245 246 246 246 245 244 244 242 241 241 242 244 246 248 251 253 254 256 258 261 263 264 265 266 267 266 265 263 262 265 264 259 258 262 268 274 278 279 279 280 287 295 295 290 291 295 297 302 308 309 310 316
202 205 205 205 210 212 212 215 218 219 219 219 218 218 219 219 221 224 225 227 227 223 221 222 225 228 231 232 234 239 240 239 240 244 247 247 246 245 243 243 243 243 243 244 245 247 249 250 252 254 256 257 259 261 262 263 265 265 264 263 262 260 259 257 252 249 250 255 261 265 267 269 276 288 296 293 291 297 301 303 306 309 306 305 310
197 199 204 207 209 209 209 213 217 218 218 219 218 218 219 219 220 223 224 225 225 223 221 222 224 226 228 227 227 231 236 239 240 243 247 247 245 243 241 241 242 243 244 245 245 246 248 250 253 254 255 256 257 258 260 261 262 262 262 262 260 257 254 249 247 248 250 253 256 257 261 269 278 286 291 295 303 307 308 309 304 298 297 302 310
193 200 206 205 204 205 206 211 215 214 215 219 219 218 220 220 220 222 222 222 222 221 220 220 220 223 226 227 226 226 230 238 241 243 245 246 245 243 241 241 242 241 243 245 246 246 247 249 252 254 256 257 257 257 258 259 258 258 260 261 259 256 254 252 251 253 256 260 263 263 267 276 280 278 277 281 281 271 271 281 289 295 303 309 315
197 203 206 203 201 203 205 210 213 209 210 217 219 218 219 218 219 221 221 218 218 219 221 220 219 219 223 225 225 224 225 232 239 243 244 245 246 244 242 241 242 241 240 242 245 246 245 246 248 252 255 257 257 257 257 257 255 255 257 257 255 254 255 256 257 257 258 261 263 267 274 282 280 275 270 265 264 269 279 291 300 308 315 321 324
196 201 204 202 200 198 200 208 212 206 206 214 216 216 217 216 215 218 219 216 214 214 217 220 220 219 219 221 223 225 226 228 235 241 244 244 246 245 242 238 238 238 237 236 238 242 244 243 244 247 250 253 254 256 255 253 252 252 252 251 251 252 254 256 259 261 263 265 267 273 281 283 272 262 264 274 285 294 300 307 316 321 322 326 328
194 200 202 200 198 195 196 204 208 203 201 210 215 215 215 215 213 214 214 212 210 209 211 216 219 219 219 220 222 225 227 228 232 238 242 243 245 247 244 239 234 234 234 231 228 230 235 238 240 242 245 248 250 252 252 250 248 247 246 246 247 249 252 256 259 261 263 266 272 278 278 272 267 269 276 287 297 303 308 314 320 322 324 328 330
196 198 197 196 194 191 188 193 201 200 198 205 213 214 213 213 212 210 209 207 207 208 208 211 215 216 217 220 221 222 223 224 227 234 240 241 243 245 244 240 233 229 230 229 225 224 226 230 234 237 240 243 245 247 249 247 244 244 245 245 246 249 252 254 254 254 254 252 251 253 254 258 267 276 287 295 298 302 308 315 320 323 326 329 330
195 192 188 188 187 185 184 187 193 195 194 197 204 209 210 211 209 207 206 206 207 209 209 209 211 212 214 218 219 219 220 221 223 229 235 237 238 237 237 237 231 224 222 223 225 226 227 227 228 231 235 238 241 244 247 247 245 244 244 245 246 247 246 245 243 243 244 244 241 243 248 256 268 285 297 300 299 303 309 315 320 324 326 331 338
191 184 181 183 183 183 186 187 188 190 190 191 194 199 202 203 204 207 209 207 206 208 209 208 209 211 212 215 216 217 220 221 221 225 231 235 234 232 232 234 230 221 217 218 222 225 228 229 228 230 232 235 239 242 245 246 243 241 242 243 242 239 238 241 243 244 245 247 246 245 248 254 266 285 297 293 290 299 308 314 319 321 324 335 349
186 181 178 180 180 181 183 185 187 187 187 188 191 195 197 198 200 204 209 209 207 207 209 209 211 212 213 215 218 219 221 222 222 224 230 235 235 232 231 233 231 223 220 222 222 223 227 230 229 229 231 233 236 240 243 243 241 239 240 241 239 237 238 239 240 241 241 240 237 238 245 256 269 282 288 278 282 297 308 308 309 316 327 341 355
182 180 177 176 178 180 180 181 186 187 186 190 196 197 197 198 197 199 206 211 209 206 208 211 214 216 216 217 221 222 224 227 226 224 228 233 236 235 232 229 228 223 220 221 221 220 226 229 227 228 231 232 233 237 240 241 241 240 241 241 239 237 235 237 241 242 237 229 227 233 244 258 270 279 276 270 281 294 299 300 306 317 332 346 356
178 178 176 175 178 181 179 180 187 188 187 193 201 202 201 201 201 201 207 214 212 209 209 211 214 218 220 222 224 224 225 230 229 225 225 227 231 235 232 228 228 225 217 217 218 218 224 228 227 228 230 231 232 236 238 240 241 242 242 241 238 234 233 238 243 239 230 228 234 239 249 259 266 269 268 271 281 289 292 299 309 325 341 352 355
179 178 175 175 178 181 180 181 187 189 189 194 203 206 205 205 206 206 209 215 217 217 216 214 214 217 221 224 226 226 226 230 231 226 222 221 223 228 230 231 234 231 221 218 219 220 223 227 227 228 231 232 233 235 235 235 239 240 240 239 238 237 236 235 233 228 228 237 243 244 254 263 265 258 256 265 275 283 292 300 310 329 348 353 348
176 174 173 174 178 180 180 181 186 189 189 193 201 206 206 207 212 213 212 214 219 221 222 221 219 219 220 222 224 225 226 227 227 225 224 222 221 224 230 234 235 230 223 222 222 221 222 225 227 227 229 231 232 232 232 233 236 237 238 238 238 236 229 223 223 226 231 234 236 239 246 251 249 247 255 266 275 280 289 303 316 331 338 337 335
172 172 172 174 177 178 179 182 187 188 189 192 199 202 200 203 213 220 220 219 220 223 225 225 223 222 222 224 225 227 228 227 227 227 227 228 229 232 236 237 233 227 225 226 225 222 221 226 229 226 226 231 235 234 234 236 238 238 235 232 229 223 215 214 224 228 220 219 226 232 236 237 238 246 251 254 264 274 284 297 310 315 312 315 323
168 172 173 175 178 180 181 184 187 188 191 197 201 204 204 201 207 220 227 226 225 226 227 227 225 224 226 228 228 229 231 231 233 233 230 230 234 237 236 233 230 226 224 224 223 220 220 226 229 226 225 232 235 235 237 239 239 234 222 205 198 203 205 210 220 218 211 216 221 219 221 227 229 234 241 245 253 267 278 284 290 296 298 303 311
149 160 165 167 169 173 177 181 185 187 192 198 200 204 210 208 204 211 222 222 221 225 229 230 229 229 231 232 233 233 233 234 235 235 232 230 234 237 235 231 229 227 224 223 223 220 219 224 227 225 225 230 231 231 233 229 214 198 189 187 190 197 201 207 217 220 217 215 212 211 220 227 228 231 239 247 252 260 268 271 278 287 288 288 301
122 139 148 150 157 168 172 175 182 184 186 191 193 196 205 205 199 205 214 216 219 228 234 233 231 231 232 234 235 233 232 231 229 228 228 226 227 229 229 227 224 222 221 223 225 224 222 223 224 222 224 227 226 221 215 203 190 183 185 192 196 196 201 213 224 228 220 206 200 216 227 230 232 235 237 241 247 254 261 269 276 282 283 286 301
120 126 132 133 140 158 170 173 177 179 179 183 185 189 199 201 195 200 214 221 226 234 235 229 225 225 226 227 226 224 223 222 220 220 220 220 220 218 214 211 212 215 216 218 219 219 219 219 218 218 220 222 214 202 193 189 186 185 191 199 203 204 215 225 233 235 224 208 206 226 234 230 229 234 236 238 245 252 261 269 275 281 285 289 296
118 125 130 130 129 137 148 155 157 159 163 175 182 188 198 200 197 204 221 227 226 225 221 214 211 211 211 213 214 212 210 210 210 210 210 209 208 205 198 190 195 208 217 218 215 212 212 212 210 209 204 195 191 192 191 189 190 192 196 202 209 217 226 233 237 233 221 210 210 229 236 230 228 233 239 243 251 259 268 273 277 282 286 289 291
97 111 123 131 130 127 132 141 146 147 150 163 178 187 193 198 205 219 231 229 216 203 198 198 200 200 201 204 204 200 198 197 196 196 196 195 195 194 190 185 190 199 206 203 194 190 189 190 190 187 179 172 173 181 186 188 194 200 200 201 209 220 222 220 224 227 221 214 218 230 235 232 233 238 247 257 264 267 268 272 279 282 284 287 289
83 92 106 122 129 128 129 135 139 142 146 153 167 181 191 200 211 217 214 205 195 188 187 194 198 196 194 192 188 183 181 180 180 183 186 184 179 176 176 176 178 178 175 175 180 184 184 182 180 179 179 177 174 172 175 177 183 193 195 192 199 212 209 201 206 217 216 214 221 230 235 238 244 249 253 260 269 273 272 276 283 284 284 288 289
76 79 82 97 113 124 132 138 144 158 175 184 190 192 193 199 203 198 188 186 189 192 197 203 204 197 190 186 185 184 182 180 182 187 191 187 182 179 177 174 172 172 172 176 183 188 188 185 184 184 184 183 180 179 180 176 171 174 181 181 184 196 202 201 208 216 216 217 227 236 242 247 252 253 253 259 271 279 280 280 283 285 287 289 289
66 72 69 69 75 83 94 108 123 142 174 204 208 199 193 190 191 191 190 192 195 199 204 205 200 193 185 184 187 192 192 189 188 189 188 185 182 180 180 178 177 179 182 185 189 191 191 192 193 192 190 189 189 191 190 182 174 175 179 181 185 191 193 193 198 203 206 213 224 234 244 255 261 265 268 272 276 280 281 282 284 288 291 291 291
59 66 65 62 62 64 68 73 75 75 78 86 119 192 202 199 196 195 194 193 195 197 198 193 188 185 183 182 185 190 191 190 190 188 187 186 186 185 186 187 188 189 191 191 191 190 190 190 188 185 185 187 190 193 193 187 183 185 187 187 190 195 198 199 200 199 199 207 217 219 223 237 251 260 268 272 271 270 274 281 285 285 287 290 292
46 57 62 61 59 61 65 68 66 60 56 58 60 96 210 210 205 197 189 184 182 181 182 182 182 184 184 184 186 189 191 190 184 174 171 175 181 183 183 182 180 178 175 172 168 165 165 166 169 174 177 177 176 180 185 186 187 191 195 197 200 204 208 213 217 217 220 232 237 231 229 236 240 241 245 252 258 263 271 280 284 281 281 286 290
30 44 56 58 56 56 58 60 62 59 53 48 47 69 179 194 196 191 184 179 175 174 175 178 180 184 187 188 188 189 190 187 177 166 161 163 167 169 168 165 163 161 158 155 155 157 159 162 165 169 173 174 174 178 182 184 185 189 195 201 206 210 212 218 226 231 237 244 247 244 247 253 256 257 260 265 269 272 277 282 283 282 282 286 290
17 29 42 50 53 53 53 55 56 53 50 65 87 134 166 175 179 179 178 178 179 179 179 179 179 181 183 184 184 184 184 182 177 170 166 162 158 153 151 150 151 151 150 149 151 154 158 160 161 162 165 170 172 175 177 179 181 185 191 197 204 212 218 225 234 241 246 252 258 261 264 266 269 272 275 276 277 278 279 280 281 285 286 285 286
6 18 29 39 45 47 52 60 65 61 67 135 148 157 165 171 175 177 177 178 179 179 179 179 181 180 177 175 175 177 178 177 174 170 166 162 154 147 143 141 140 138 138 139 140 142 145 147 147 146 148 151 156 166 174 177 178 183 190 198 207 220 231 238 242 247 253 260 267 270 270 271 271 272 273 275 277 279 279 280 283 285 283 281 283
0 11 20 29 38 43 47 55 67 82 119 160 167 164 164 167 170 172 174 175 175 175 174 173 172 170 167 164 166 168 169 170 171 168 163 157 150 142 138 136 136 136 137 137 135 134 136 139 139 143 152 162 172 180 183 183 186 197 206 213 222 235 246 251 254 257 259 263 266 268 269 270 271 271 274 278 278 274 272 274 277 280 282 285 288
7 12 18 24 37 51 57 62 81 116 148 166 167 161 159 162 164 163 164 164 163 163 164 162 158 157 158 160 163 165 165 164 164 163 159 154 149 145 142 141 144 146 148 147 145 145 149 153 156 162 175 185 189 189 192 199 213 229 240 247 254 262 267 268 267 267 265 263 264 266 268 270 272 274 276 276 274 273 275 279 284 286 288 290 289
37 40 43 42 46 66 87 99 114 133 150 161 162 159 158 157 154 153 155 156 152 149 152 156 158 159 160 161 160 159 159 158 157 156 155 152 149 146 142 138 138 141 143 144 145 149 154 159 162 167 176 187 197 217 238 248 248 249 255 259 263 267 271 273 275 276 275 272 272 273 275 276 278 281 281 280 281 283 287 291 294 294 294 295 296